Date,TemperatureHighF,TemperatureAvgF,TemperatureLowF,DewpointHighF,DewpointAvgF,DewpointLowF,HumidityHigh,HumidityAvg,HumidityLow,PressureMaxIn,PressureMinIn,WindSpeedMaxMPH,WindSpeedAvgMPH,GustSpeedMaxMPH,PrecipitationSumIn
2013-1-1,47.0,43.8,40.0,46.0,40.2,30.0,96,88,57,30.11,29.97,3,0,8,0.76
2013-1-2,45.0,37.9,36.0,44.0,34.3,31.0,97,87,79,30.18,30.01,4,1,12,0.14
2013-1-3,44.0,36.7,33.0,32.0,26.9,21.0,86,69,43,30.37,30.15,4,1,10,0.00
2013-1-4,46.0,36.0,28.0,23.0,20.0,14.0,67,53,29,30.43,30.33,5,2,8,0.00
2013-1-5,47.0,38.5,30.0,35.0,23.2,20.0,82,55,36,30.39,30.23,4,1,10,0.02
2013-1-6,48.0,41.2,38.0,40.0,34.8,28.0,93,79,56,30.32,30.15,8,1,12,0.07
2013-1-7,50.0,38.4,29.0,30.0,26.3,23.0,80,63,42,30.41,30.29,7,2,13,0.01
2013-1-8,55.0,44.7,36.0,43.0,33.6,27.0,80,65,50,30.40,30.28,4,1,10,0.00
2013-1-9,53.0,50.3,48.0,51.0,47.1,42.0,96,89,77,30.42,30.31,4,1,7,0.04
2013-1-10,62.0,52.5,49.0,57.0,50.8,48.0,97,94,82,30.44,30.13,9,2,22,0.06
2013-1-11,65.0,62.0,61.0,63.0,59.8,56.0,97,92,80,30.14,30.06,10,3,24,0.36
2013-1-12,69.0,64.3,62.0,68.0,62.0,57.0,99,93,81,30.12,29.99,4,1,11,0.25
2013-1-13,66.0,62.3,55.0,63.0,58.7,51.0,95,88,81,30.06,29.94,5,2,16,1.17
2013-1-14,53.0,41.1,36.0,51.0,39.2,34.0,95,93,91,30.26,30.06,7,3,14,2.05
2013-1-15,42.0,40.0,37.0,41.0,38.7,35.0,97,95,93,30.17,29.98,5,2,11,1.49
2013-1-16,47.0,43.1,40.0,46.0,42.1,39.0,98,96,94,30.06,29.93,4,1,10,0.28
2013-1-17,42.0,39.1,36.0,41.0,34.9,24.0,96,85,63,30.30,29.77,19,6,30,0.13
2013-1-18,49.0,38.4,30.0,30.0,24.4,12.0,83,59,27,30.55,30.30,6,1,13,0.01
2013-1-19,53.0,40.8,28.0,34.0,27.9,24.0,90,63,36,30.43,30.20,6,1,13,0.00
2013-1-20,58.0,47.0,38.0,35.0,30.1,25.0,68,53,38,30.21,30.10,4,1,10,0.00
2013-1-21,48.0,39.0,30.0,31.0,19.7,11.0,86,49,23,30.22,30.10,6,1,17,0.00
2013-1-22,40.0,29.7,23.0,12.0,5.8,2.0,52,37,22,30.37,30.20,6,2,13,0.00
2013-1-23,51.0,38.7,30.0,33.0,17.2,7.0,62,42,31,30.36,30.13,7,1,13,0.00
2013-1-24,48.0,38.7,29.0,39.0,18.2,0.0,70,46,23,30.36,30.15,8,3,18,0.00
2013-1-25,33.0,31.4,28.0,31.0,21.1,4.0,92,68,34,30.35,30.11,7,1,19,0.03
2013-1-26,46.0,38.4,32.0,36.0,31.7,29.0,93,78,54,30.33,30.16,4,1,8,0.01
2013-1-27,49.0,39.8,31.0,35.0,30.7,27.0,87,71,56,30.42,30.33,6,2,12,0.00
2013-1-28,57.0,48.7,43.0,47.0,38.5,29.0,84,68,55,30.35,30.22,7,3,14,0.00
2013-1-29,60.0,52.3,46.0,57.0,49.2,43.0,93,89,85,30.26,29.86,3,0,10,0.00
2013-1-30,65.0,55.6,41.0,63.0,52.5,31.0,95,89,73,29.88,29.56,11,4,24,1.61
2013-1-31,46.0,40.8,34.0,31.0,22.4,18.0,78,49,33,30.11,29.78,13,4,21,0.08
2013-2-1,44.0,31.0,22.0,30.0,11.6,2.0,73,46,24,30.41,30.06,8,2,24,0.00
2013-2-2,36.0,29.1,23.0,32.0,21.3,11.0,85,73,52,30.38,30.09,5,1,12,0.06
2013-2-3,53.0,40.0,32.0,38.0,28.0,23.0,89,66,32,30.15,30.01,8,2,18,0.01
2013-2-4,47.0,37.4,28.0,30.0,25.1,21.0,77,62,42,30.15,29.96,5,1,18,0.00
2013-2-5,62.0,49.4,41.0,43.0,36.7,29.0,82,63,37,30.05,29.92,7,2,12,0.02
2013-2-6,62.0,51.0,40.0,43.0,35.0,28.0,90,58,31,30.19,30.02,4,0,7,0.01
2013-2-7,52.0,48.1,45.0,43.0,34.2,26.0,86,59,36,30.14,29.94,3,1,7,0.01
2013-2-8,54.0,45.5,37.0,47.0,38.8,28.0,93,78,52,30.26,29.90,7,2,16,0.05
2013-2-9,54.0,42.4,31.0,28.0,26.0,23.0,78,55,32,30.34,30.21,7,3,13,0.01
2013-2-10,54.0,48.8,45.0,49.0,34.6,23.0,94,62,32,30.22,29.88,10,3,22,0.70
2013-2-11,56.0,52.0,45.0,54.0,42.8,27.0,97,74,40,30.02,29.88,6,2,16,0.23
2013-2-12,50.0,45.7,42.0,37.0,29.9,26.0,83,55,42,30.03,29.72,9,2,13,0.07
2013-2-13,48.0,41.9,39.0,44.0,37.7,32.0,94,85,75,30.00,29.59,11,2,24,0.15
2013-2-14,57.0,45.2,36.0,35.0,31.4,27.0,75,60,36,30.09,29.98,7,1,16,0.00
2013-2-15,58.0,45.6,37.0,39.0,33.1,25.0,84,62,45,30.09,29.99,8,2,18,0.00
2013-2-16,40.0,32.9,26.0,27.0,17.5,7.0,71,54,27,30.16,30.02,7,2,17,0.00
2013-2-17,46.0,33.6,23.0,18.0,9.7,5.0,58,38,21,30.28,30.15,4,1,12,0.00
2013-2-18,58.0,44.0,30.0,27.0,21.9,15.0,69,43,28,30.31,30.00,11,3,25,0.00
2013-2-19,53.0,44.2,36.0,46.0,26.2,8.0,93,57,19,30.20,29.94,10,3,22,0.57
2013-2-20,41.0,35.0,29.0,15.0,11.9,3.0,53,39,21,30.24,30.15,5,2,8,0.02
2013-2-21,50.0,38.5,30.0,36.0,19.2,11.0,90,48,26,30.19,29.94,6,3,12,0.66
2013-2-22,47.0,44.3,39.0,43.0,41.2,36.0,94,89,81,30.09,29.98,7,2,21,0.83
2013-2-23,54.0,46.8,43.0,50.0,43.9,37.0,96,90,78,30.03,29.83,3,0,8,0.17
2013-2-24,56.0,46.0,36.0,37.0,27.7,20.0,77,51,29,30.06,29.92,5,2,11,0.01
2013-2-25,53.0,46.0,40.0,40.0,26.5,19.0,71,47,38,30.02,29.75,7,3,19,0.00
2013-2-26,49.0,44.0,39.0,45.0,39.7,33.0,95,85,67,29.77,29.50,9,3,25,0.72
2013-2-27,54.0,43.3,38.0,35.0,32.1,28.0,84,66,42,29.88,29.73,9,4,20,0.04
2013-2-28,41.0,37.4,36.0,29.0,25.0,22.0,68,61,56,30.00,29.84,8,2,21,0.01
2013-3-1,40.0,36.2,34.0,30.0,27.3,24.0,85,70,61,29.99,29.94,5,1,12,0.00
2013-3-2,38.0,34.1,31.0,30.0,25.9,22.0,85,72,61,30.06,29.94,6,1,13,0.00
2013-3-3,39.0,31.8,28.0,23.0,17.4,13.0,71,56,35,30.09,30.04,5,2,10,0.00
2013-3-4,52.0,39.9,28.0,24.0,20.0,13.0,73,47,27,30.16,29.97,4,1,10,0.00
2013-3-5,55.0,47.4,37.0,53.0,38.9,24.0,94,74,41,30.01,29.62,12,3,28,0.49
2013-3-6,40.0,34.3,32.0,27.0,23.0,18.0,72,63,56,30.23,29.91,9,3,25,0.04
2013-3-7,45.0,36.6,32.0,29.0,25.6,23.0,74,65,50,30.32,30.21,8,4,13,0.00
2013-3-8,54.0,41.1,30.0,27.0,22.6,10.0,79,52,17,30.35,30.24,7,4,13,0.00
2013-3-9,60.0,48.9,38.0,30.0,26.9,23.0,62,44,28,30.28,30.13,6,2,12,0.00
2013-3-10,68.0,59.4,52.0,37.0,30.1,27.0,41,33,22,30.15,29.95,12,5,24,0.00
2013-3-11,61.0,54.6,41.0,53.0,46.5,37.0,93,76,43,29.98,29.79,12,5,31,0.68
2013-3-12,58.0,44.5,37.0,37.0,28.6,-99.9,84,58,28,30.09,29.88,6,2,13,0.01
2013-3-13,47.0,40.9,32.0,29.0,19.7,-99.9,61,45,31,30.29,30.07,9,2,17,0.00
2013-3-14,51.0,37.0,26.0,33.0,17.3,12.0,77,47,21,30.37,30.21,6,2,11,0.00
2013-3-15,73.0,52.6,35.0,43.0,36.6,31.0,92,60,30,30.26,29.90,11,2,24,0.00
2013-3-16,76.0,66.1,57.0,47.0,42.3,39.0,56,43,29,29.92,29.80,12,6,25,0.00
2013-3-17,72.0,64.0,58.0,53.0,46.7,42.0,67,54,38,29.95,29.83,9,4,19,0.00
2013-3-18,60.0,55.9,53.0,55.0,51.8,47.0,97,86,66,29.87,29.74,10,3,26,0.58
2013-3-19,61.0,49.9,40.0,52.0,30.0,11.0,97,54,20,30.10,29.85,7,2,17,0.09
2013-3-20,57.0,46.3,37.0,28.0,14.1,7.0,65,29,18,30.12,29.89,10,2,19,0.00
2013-3-21,45.0,34.8,24.0,27.0,10.9,5.0,67,39,22,30.01,29.90,7,2,17,0.00
2013-3-22,44.0,37.6,32.0,27.0,17.8,9.0,52,44,34,30.03,29.94,3,1,8,0.00
2013-3-23,52.0,43.5,37.0,43.0,36.5,26.0,89,76,53,30.01,29.75,4,1,8,0.10
2013-3-24,57.0,48.1,41.0,55.0,44.1,28.0,98,87,58,29.81,29.38,13,3,32,0.87
2013-3-25,41.0,35.0,32.0,29.0,22.6,19.0,71,60,52,30.05,29.64,11,5,35,0.06
2013-3-26,40.0,34.2,31.0,28.0,24.5,22.0,81,68,54,30.28,30.03,5,2,12,0.00
2013-3-27,52.0,39.2,29.0,26.0,21.9,18.0,76,53,27,30.33,30.23,7,1,14,0.00
2013-3-28,59.0,45.9,33.0,29.0,24.6,19.0,77,45,27,30.35,30.22,4,1,16,0.00
2013-3-29,54.0,45.5,38.0,39.0,31.4,25.0,84,59,34,30.32,30.19,5,2,10,0.00
2013-3-30,62.0,49.2,42.0,52.0,43.4,39.0,94,82,51,30.20,29.98,3,1,11,0.25
2013-3-31,64.0,56.7,53.0,58.0,53.1,-99.9,97,91,70,29.97,29.84,7,2,14,0.72
2013-4-1,68.0,55.9,45.0,54.0,43.8,33.0,94,68,34,30.06,29.88,7,1,21,0.09
2013-4-2,55.0,47.1,39.0,35.0,23.7,16.0,63,41,25,30.21,30.06,6,2,13,0.00
2013-4-3,55.0,48.8,41.0,26.0,20.4,16.0,46,33,24,30.20,30.11,8,3,14,0.00
2013-4-4,51.0,42.6,39.0,42.0,37.6,23.0,95,85,33,30.12,29.97,5,1,10,0.74
2013-4-5,66.0,50.9,41.0,50.0,38.5,30.0,96,69,27,30.09,29.98,5,2,12,0.05
2013-4-6,71.0,58.6,43.0,43.0,35.9,32.0,80,45,26,30.18,30.04,6,1,17,0.01
2013-4-7,74.0,62.9,53.0,46.0,41.3,35.0,64,47,28,30.15,30.02,7,2,18,0.00
2013-4-8,76.0,66.3,57.0,55.0,50.1,45.0,72,57,42,30.11,30.00,9,2,18,0.00
2013-4-9,80.0,68.7,58.0,57.0,53.0,50.0,77,59,41,30.19,30.03,5,1,14,0.00
2013-4-10,83.0,71.6,61.0,59.0,54.7,52.0,76,57,39,30.10,29.87,5,1,14,0.00
2013-4-11,77.0,68.5,61.0,63.0,57.8,54.0,95,70,55,29.89,29.52,8,2,21,0.67
2013-4-12,67.0,58.3,49.0,61.0,43.8,33.0,96,63,30,29.95,29.52,6,2,18,0.72
2013-4-13,74.0,59.9,46.0,42.0,36.1,29.0,75,45,20,30.07,29.95,4,1,10,0.01
2013-4-14,61.0,55.4,51.0,53.0,43.4,33.0,95,66,37,30.02,29.92,4,0,16,0.06
2013-4-15,77.0,62.9,53.0,61.0,55.3,52.0,97,79,49,30.10,29.92,5,1,10,0.05
2013-4-16,77.0,68.3,61.0,64.0,60.0,56.0,86,75,61,30.25,30.08,5,1,10,0.01
2013-4-17,85.0,69.5,62.0,66.0,61.8,56.0,94,78,50,30.21,30.07,7,1,17,0.18
2013-4-18,79.0,69.0,59.0,65.0,58.2,53.0,96,72,42,30.08,29.83,7,2,19,0.18
2013-4-19,72.0,56.9,43.0,63.0,48.3,32.0,93,74,54,30.12,29.69,8,2,22,0.84
2013-4-20,63.0,48.7,36.0,35.0,29.0,23.0,81,51,24,30.27,30.11,6,1,11,0.01
2013-4-21,67.0,55.4,46.0,39.0,32.2,26.0,56,42,27,30.39,30.24,4,1,11,0.00
2013-4-22,71.0,58.7,46.0,45.0,39.4,35.0,78,51,27,30.35,30.14,5,0,8,0.00
2013-4-23,73.0,61.4,50.0,48.0,42.1,34.0,68,50,38,30.23,30.04,4,1,11,0.00
2013-4-24,68.0,59.2,47.0,60.0,51.1,39.0,91,75,57,30.25,30.02,6,2,14,0.05
2013-4-25,66.0,51.8,40.0,39.0,33.0,22.0,79,53,20,30.37,30.24,5,1,10,0.00
2013-4-26,70.0,57.7,47.0,48.0,35.2,27.0,88,45,27,30.41,30.27,4,1,8,0.24
2013-4-27,54.0,51.9,50.0,53.0,50.5,48.0,98,95,88,30.38,30.12,6,0,10,1.05
2013-4-28,58.0,56.3,52.0,57.0,54.2,-99.9,98,96,93,30.14,29.94,3,1,12,1.17
2013-4-29,73.0,62.2,56.0,61.0,54.9,51.0,98,79,47,30.05,29.93,4,0,7,0.02
2013-4-30,78.0,64.7,52.0,60.0,53.4,48.0,96,71,36,30.10,29.96,4,0,11,0.00
2013-5-1,74.0,67.0,60.0,60.0,56.6,52.0,89,70,56,30.21,30.10,3,0,8,0.00
2013-5-2,72.0,64.4,56.0,59.0,54.4,50.0,83,70,57,30.21,30.10,3,0,10,0.00
2013-5-3,69.0,61.8,57.0,57.0,54.2,52.0,90,77,61,30.16,29.96,4,0,16,0.01
2013-5-4,62.0,53.4,50.0,53.0,50.8,49.0,97,91,68,29.96,29.89,3,0,12,2.71
2013-5-5,62.0,50.7,46.0,55.0,48.0,45.0,97,91,58,29.92,29.78,7,0,19,1.53
2013-5-6,54.0,49.7,46.0,51.0,47.7,44.0,95,93,87,29.91,29.79,4,0,8,0.64
2013-5-7,73.0,57.5,46.0,57.0,49.3,45.0,96,77,42,30.00,29.89,3,0,13,0.13
2013-5-8,76.0,63.9,54.0,59.0,54.3,50.0,89,72,49,30.09,29.96,6,0,10,0.00
2013-5-9,81.0,68.7,56.0,62.0,55.8,52.0,94,67,36,30.14,30.04,5,1,13,0.00
2013-5-10,72.0,66.1,60.0,59.0,54.9,-99.9,86,71,57,30.09,29.97,6,1,13,0.00
2013-5-11,74.0,66.3,58.0,65.0,58.7,50.0,88,77,60,30.00,29.91,6,1,11,0.05
2013-5-12,66.0,56.5,50.0,50.0,35.5,-99.9,81,51,24,30.17,30.00,3,1,14,0.05
2013-5-13,70.0,55.6,43.0,37.0,32.6,27.0,67,44,21,30.28,30.16,4,0,13,0.00
2013-5-14,81.0,63.1,46.0,54.0,46.2,34.0,84,57,36,30.26,30.08,5,1,16,0.00
2013-5-15,85.0,72.6,60.0,58.0,54.1,47.0,79,55,30,30.19,30.04,6,1,12,0.00
2013-5-16,83.0,66.9,63.0,61.0,35.9,-99.9,78,60,44,30.11,30.00,5,0,10,0.00
2013-5-17,77.0,68.7,63.0,65.0,55.1,-99.9,91,72,56,30.13,30.04,3,0,7,0.10
2013-5-18,74.0,67.9,63.0,71.0,65.5,61.0,98,92,84,30.10,30.03,3,0,9,0.66
2013-5-19,69.0,65.6,60.0,68.0,64.4,59.0,97,96,92,30.16,29.98,7,1,16,1.38
2013-5-20,83.0,68.1,57.0,72.0,62.8,56.0,97,85,59,30.15,30.03,3,0,7,0.02
2013-5-21,86.0,72.2,64.0,71.0,65.6,62.0,96,81,55,30.08,29.93,3,0,12,0.01
2013-5-22,83.0,69.5,65.0,70.0,65.3,62.0,94,87,58,30.00,29.88,3,0,17,0.38
2013-5-23,81.0,70.2,63.0,67.0,60.1,53.0,95,73,40,30.06,29.93,6,1,20,0.24
2013-5-24,72.0,63.4,57.0,54.0,48.6,39.0,86,61,32,30.28,30.06,6,1,12,0.01
2013-5-25,75.0,62.8,52.0,49.0,44.3,37.0,73,53,27,30.37,30.19,3,0,6,0.00
2013-5-26,78.0,66.0,56.0,55.0,50.8,46.0,84,60,38,30.32,30.18,2,0,6,0.00
2013-5-27,84.0,70.4,58.0,60.0,56.8,52.0,91,64,41,30.26,30.12,3,0,8,0.00
2013-5-28,84.0,74.0,65.0,62.0,59.9,56.0,84,63,40,30.21,30.11,3,1,11,0.00
2013-5-29,84.0,74.0,65.0,65.0,60.5,56.0,81,64,42,30.24,30.13,3,0,10,0.00
2013-5-30,81.0,73.9,66.0,66.0,63.5,61.0,86,71,57,30.25,30.12,4,0,13,0.00
2013-5-31,82.0,74.5,68.0,67.0,64.3,63.0,84,71,55,30.21,30.07,4,0,13,0.00
2013-6-1,82.0,74.3,70.0,73.0,66.9,62.0,95,78,65,30.10,29.98,6,1,12,0.30
2013-6-2,80.0,72.6,69.0,73.0,67.2,-99.9,98,88,67,30.01,29.90,3,0,13,0.43
2013-6-3,82.0,71.0,64.0,68.0,62.8,58.0,95,77,45,30.03,29.93,2,0,10,0.01
2013-6-4,82.0,71.3,62.0,64.0,58.9,56.0,85,67,44,30.08,30.00,2,0,6,0.00
2013-6-5,80.0,69.0,65.0,71.0,64.6,59.0,96,86,72,30.07,29.96,3,0,27,1.05
2013-6-6,80.0,71.7,65.0,72.0,67.2,64.0,97,87,68,29.96,29.78,3,0,8,0.02
2013-6-7,81.0,70.7,66.0,70.0,67.0,64.0,96,88,61,29.90,29.75,2,0,19,0.40
2013-6-8,81.0,71.1,64.0,71.0,64.8,60.0,98,82,53,30.09,29.90,3,0,10,0.08
2013-6-9,82.0,70.7,66.0,71.0,67.4,62.0,96,89,68,30.13,29.99,6,0,21,1.00
2013-6-10,83.0,73.6,66.0,70.0,66.0,60.0,98,80,47,30.03,29.92,6,2,13,0.39
2013-6-11,88.0,77.2,68.0,73.0,68.7,65.0,96,77,50,30.07,29.97,5,0,8,0.22
2013-6-12,91.0,80.3,72.0,76.0,71.8,68.0,93,76,54,30.13,30.02,3,0,10,0.00
2013-6-13,89.0,79.1,71.0,75.0,70.0,64.0,89,74,61,30.02,29.81,8,2,21,0.00
2013-6-14,81.0,72.4,64.0,65.0,59.3,56.0,82,65,45,30.07,29.93,2,0,7,0.00
2013-6-15,85.0,73.8,63.0,64.0,60.3,56.0,85,64,46,30.17,30.07,3,0,8,0.00
2013-6-16,85.0,73.8,65.0,70.0,65.5,61.0,94,77,54,30.18,30.04,3,0,12,0.29
2013-6-17,83.0,71.5,68.0,73.0,68.5,65.0,97,90,71,30.10,29.98,2,0,7,0.54
2013-6-18,78.0,71.2,68.0,74.0,68.2,64.0,98,90,75,30.00,29.92,4,0,7,0.65
2013-6-19,83.0,73.0,64.0,68.0,64.4,61.0,92,76,52,30.11,29.99,1,0,5,0.10
2013-6-20,85.0,73.6,67.0,71.0,66.5,63.0,96,80,50,30.24,30.11,1,0,6,0.00
2013-6-22,84.0,80.5,73.0,67.0,63.5,61.0,76,57,47,30.28,30.14,2,0,7,0.00
2013-6-23,86.0,75.7,67.0,69.0,66.9,64.0,93,75,53,30.24,30.11,2,0,8,0.00
2013-6-24,87.0,75.6,68.0,73.0,69.2,67.0,96,82,53,30.25,30.11,3,0,14,0.00
2013-6-25,87.0,76.3,69.0,74.0,70.4,67.0,94,83,56,30.19,30.04,3,0,12,0.00
2013-6-26,89.0,79.8,71.0,74.0,70.8,69.0,96,76,54,30.10,29.92,5,1,13,0.00
2013-6-27,88.0,78.2,74.0,75.0,71.1,67.0,92,79,65,29.99,29.84,6,1,12,0.20
2013-6-28,88.0,76.6,68.0,75.0,70.1,66.0,95,82,59,29.89,29.70,7,1,13,0.20
2013-6-29,86.0,76.6,68.0,71.0,63.6,58.0,96,68,40,29.76,29.69,4,1,10,0.26
2013-6-30,87.0,75.3,65.0,65.0,61.8,55.0,92,66,35,29.84,29.71,4,0,8,0.27
2013-7-1,79.0,68.8,63.0,73.0,65.2,62.0,97,89,67,29.95,29.81,3,0,11,0.29
2013-7-2,82.0,70.4,65.0,73.0,66.8,64.0,98,90,61,30.09,29.95,4,0,14,0.10
2013-7-3,71.0,69.2,67.0,70.0,68.0,66.0,98,96,92,30.19,30.08,1,0,7,0.13
2013-7-4,74.0,69.0,67.0,73.0,67.8,66.0,97,96,90,30.19,30.10,3,0,14,0.85
2013-7-5,72.0,69.8,68.0,71.0,68.8,67.0,98,96,94,30.22,30.13,2,0,12,0.54
2013-7-6,70.0,69.0,68.0,69.0,68.0,67.0,98,97,97,30.19,30.15,3,0,10,1.66
2013-7-7,78.0,71.2,67.0,76.0,69.9,66.0,98,96,91,30.21,30.13,2,0,7,1.48
2013-7-8,84.0,71.8,68.0,77.0,68.4,-99.9,99,93,66,30.25,30.13,1,0,5,0.52
2013-7-9,88.0,77.1,71.0,77.0,72.9,70.0,97,88,61,30.22,30.09,5,0,7,0.01
2013-7-10,88.0,75.5,69.0,76.0,69.8,-99.9,96,86,68,30.14,29.96,5,0,9,0.14
2013-7-11,84.0,73.6,69.0,76.0,70.6,68.0,98,91,67,30.04,29.91,1,0,5,0.49
2013-7-12,82.0,74.5,69.0,71.0,66.9,61.0,91,78,58,30.01,29.93,3,0,10,0.03
2013-7-13,82.0,72.9,64.0,70.0,65.5,59.0,88,78,65,30.10,29.98,4,0,10,0.00
2013-7-14,83.0,74.1,69.0,75.0,70.2,68.0,97,88,68,30.23,30.09,1,0,6,0.18
2013-7-15,84.0,75.0,69.0,72.0,69.5,67.0,95,84,59,30.33,30.22,1,0,7,0.07
2013-7-16,87.0,77.9,70.0,75.0,71.0,68.0,97,81,59,30.36,30.26,1,0,6,0.07
2013-7-17,90.0,78.4,70.0,77.0,71.8,68.0,97,82,54,30.35,30.18,2,0,6,0.02
2013-7-18,89.0,77.8,70.0,74.0,70.2,68.0,95,79,54,30.28,30.08,1,0,6,0.01
2013-7-19,91.0,80.1,72.0,75.0,71.0,68.0,95,76,48,30.17,30.00,4,0,8,0.18
2013-7-20,90.0,79.8,71.0,74.0,70.4,66.0,93,75,46,30.08,29.93,4,0,10,0.18
2013-7-21,85.0,75.6,71.0,74.0,71.2,69.0,96,87,66,30.08,29.97,5,0,14,0.09
2013-7-22,84.0,74.0,69.0,73.0,69.5,67.0,96,87,64,30.05,29.89,7,1,17,0.01
2013-7-23,81.0,75.3,71.0,73.0,70.2,67.0,90,84,73,29.98,29.86,7,1,14,0.01
2013-7-24,83.0,75.5,71.0,76.0,69.9,62.0,93,83,62,29.94,29.85,2,0,7,0.08
2013-7-25,84.0,73.6,64.0,68.0,65.0,61.0,90,76,53,30.07,29.92,2,0,7,0.02
2013-7-26,87.0,74.1,65.0,70.0,63.6,59.0,88,71,50,30.11,30.01,4,0,10,0.00
2013-7-27,85.0,75.9,70.0,71.0,66.7,64.0,90,74,49,30.03,29.91,3,0,10,0.00
2013-7-28,82.0,73.6,68.0,68.0,65.6,59.0,90,77,58,30.11,29.95,1,0,7,0.00
2013-7-29,79.0,68.4,61.0,63.0,57.3,52.0,81,68,49,30.23,30.10,1,0,5,0.00
2013-7-30,84.0,73.1,65.0,69.0,62.4,58.0,86,70,43,30.27,30.15,1,0,3,0.00
2013-7-31,76.0,70.5,67.0,72.0,67.6,63.0,97,91,83,30.18,30.01,3,0,12,0.37
2013-8-1,84.0,76.1,71.0,73.0,68.5,66.0,95,79,55,30.04,29.97,4,0,7,0.01
2013-8-2,84.0,74.7,66.0,68.0,64.3,57.0,90,72,46,30.09,30.00,1,0,7,0.00
2013-8-3,82.0,74.7,67.0,72.0,68.0,63.0,91,80,68,30.09,30.03,2,0,10,0.00
2013-8-4,86.0,76.5,70.0,72.0,67.3,61.0,92,75,51,30.11,30.04,3,0,7,0.00
2013-8-5,86.0,73.9,65.0,67.0,61.1,57.0,77,66,41,30.11,30.01,2,0,7,0.00
2013-8-6,84.0,75.0,70.0,74.0,68.1,64.0,95,80,63,30.04,29.98,3,0,8,0.22
2013-8-7,82.0,72.8,69.0,76.0,70.7,66.0,97,94,75,30.07,29.99,3,0,11,0.31
2013-8-8,86.0,74.8,71.0,76.0,71.7,69.0,98,91,69,30.08,30.00,3,0,11,0.13
2013-8-9,86.0,75.5,70.0,80.0,72.4,69.0,98,91,69,30.12,30.03,3,0,12,0.13
2013-8-10,86.0,76.7,73.0,78.0,73.5,68.0,97,90,69,30.18,30.09,3,0,10,0.56
2013-8-11,87.0,77.6,72.0,78.0,73.0,70.0,97,87,60,30.21,30.11,4,0,11,0.02
2013-8-20,83.0,72.1,69.0,72.0,56.2,-99.9,95,78,67,30.21,30.11,3,0,7,0.01
2013-8-21,77.0,72.9,71.0,73.0,70.6,68.0,97,93,82,30.24,30.15,2,0,7,1.03
2013-8-22,82.0,73.4,71.0,78.0,71.5,68.0,98,94,77,30.21,30.09,0,0,8,0.23
2013-8-23,85.0,73.9,68.0,78.0,69.7,66.0,98,88,61,30.13,30.02,1,0,3,0.09
2013-8-24,84.0,73.8,67.0,72.0,68.6,65.0,95,85,61,30.26,30.09,1,0,10,0.01
2013-8-25,82.0,72.6,67.0,69.0,60.5,-99.9,91,70,49,30.40,30.26,1,0,6,0.01
2013-8-26,82.0,73.1,64.0,66.0,63.0,61.0,94,72,51,30.35,30.19,2,0,7,0.00
2013-8-27,85.0,70.9,65.0,69.0,65.4,62.0,94,84,56,30.20,30.11,1,0,3,0.00
2013-9-28,76.0,67.7,61.0,61.0,57.5,55.0,90,71,51,30.26,30.14,2,0,8,0.00
2013-9-29,74.0,64.2,59.0,59.0,52.2,-99.9,89,69,52,30.18,30.03,3,0,10,0.01
2013-9-30,75.0,65.2,59.0,65.0,58.3,56.0,97,80,52,30.12,30.02,3,0,11,0.01
2013-10-1,72.0,68.7,63.0,64.0,62.2,59.0,87,80,73,30.15,30.09,0,0,0,0.00
2013-10-2,81.0,70.9,63.0,70.0,64.3,62.0,97,81,54,30.21,30.09,1,0,5,0.00
2013-10-3,82.0,72.9,66.0,71.0,64.2,60.0,96,76,48,30.16,30.07,3,0,10,0.00
2013-10-4,81.0,70.1,62.0,68.0,64.4,61.0,96,83,61,30.20,30.11,0,0,0,0.00
2013-10-18,65.0,55.9,50.0,50.0,47.6,46.0,90,75,52,30.11,29.99,4,0,7,0.01
2013-10-19,68.0,55.7,49.0,53.0,49.8,44.0,92,81,59,30.08,29.94,4,0,8,0.00
2013-10-20,64.0,50.5,40.0,42.0,36.4,-99.9,88,64,36,30.13,30.04,1,0,5,0.00
2013-10-21,68.0,53.9,43.0,54.0,44.4,38.0,94,74,41,30.16,30.03,3,0,7,0.00
2013-10-22,66.0,59.0,52.0,53.0,49.6,48.0,87,72,55,30.06,29.90,3,0,10,0.00
2013-10-23,55.0,49.5,41.0,49.0,38.4,30.0,87,67,40,30.13,29.87,3,1,11,0.00
2013-10-24,59.0,47.1,39.0,40.0,36.8,32.0,86,68,49,30.30,30.11,4,0,11,0.00
2013-10-25,51.0,44.5,35.0,34.0,27.7,25.0,71,53,38,30.48,30.30,3,1,10,0.00
2013-10-26,58.0,44.7,31.0,37.0,30.4,25.0,89,60,34,30.38,30.16,5,1,12,0.00
2013-10-27,61.0,53.6,49.0,51.0,41.7,-99.9,85,67,54,30.19,30.11,3,0,10,0.00
2013-10-28,59.0,54.4,52.0,56.0,50.1,-99.9,95,91,85,30.31,30.15,1,0,6,0.00
2013-10-29,69.0,59.5,54.0,60.0,55.6,53.0,97,88,67,30.37,30.25,0,0,4,0.00
2013-10-30,78.0,65.4,57.0,61.0,55.9,54.0,93,74,45,30.32,30.14,3,0,8,0.01